Change the Weather History Date:

Sunday, April 8, 2012

  Actual Average Record
Temperature  
Mean Temperature 70 °F 62 °F  
Max Temperature 80 °F 72 °F 91 °F (1980)
Min Temperature 60 °F 52 °F 34 °F (1938)
Degree Days  
Heating Degree Days 0 5  
Month to date heating degree days 0 43  
Since 1 July heating degree days 1644 2208  
Cooling Degree Days 5 2  
Month to date cooling degree days 46 11  
Year to date cooling degree days 173 44  
Growing Degree Days 20 (Base 50)    
Moisture  
Dew Point 60 °F    
Average Humidity 73    
Maximum Humidity 93    
Minimum Humidity 52    
Precipitation  
Precipitation 0.21 in 0.09 in 4.20 in (1942)
Month to date precipitation 1.37 0.80  
Year to date precipitation 13.90 11.79  
Snow  
Snow 0.00 in - - ()
Month to date snowfall 0.0  
Since 1 July snowfall 0.0  
Snow Depth 0.00 in    
Sea Level Pressure  
Sea Level Pressure 30.22 in    
Wind  
Wind Speed 5 mph (ENE)    
Max Wind Speed 13 mph    
Max Gust Speed 17 mph    
Visibility 9 miles    
Events Rain , Thunderstorm    
T = Trace of Precipitation, MM = Missing Value Source: NWS Daily Summary

Daily Weather History Graph

Daily Weather History Graph

Search for Another Location

Airport or City:

Trip Planner

Search our weather history database for the weather conditions in past years. The results will help you decide how hot, cold, wet, or windy it might be!

Date:

Astronomy

Apr. 08, 2012 Rise Set
Actual Time 7:00 AM CDT 7:46 PM CDT
Civil Twilight 6:35 AM CDT 8:11 PM CDT
Nautical Twilight 6:06 AM CDT 8:41 PM CDT
Astronomical Twilight 5:35 AM CDT 9:11 PM CDT
Moon 10:23 PM CDT (4/8) 8:07 AM CDT (4/8)
Length of Visible Light 13h 36m
Length of Day
12h 46m
Waning Gibbous, 95% of the Moon is Illuminated
Apr 8
Waning Gibbous
Apr 13
Last Quarter
Apr 21
New
Apr 29
First Quarter
May 5
Full

Hourly Weather History & Observations

Time (CDT) Temp. Dew Point Humidity Pressure Visibility Wind Dir Wind Speed Gust Speed Precip Events Conditions
12:53 AM 66.9 °F 57.9 °F 73% 30.22 in 10.0 mi SE 6.9 mph - N/A   Clear
1:53 AM 64.9 °F 57.9 °F 78% 30.21 in 10.0 mi SSE 4.6 mph - N/A   Clear
2:53 AM 66.0 °F 57.0 °F 73% 30.19 in 10.0 mi SE 4.6 mph - N/A   Clear
3:53 AM 63.0 °F 57.0 °F 81% 30.18 in 10.0 mi South 5.8 mph - N/A   Clear
4:53 AM 62.1 °F 57.0 °F 84% 30.20 in 10.0 mi Calm Calm - N/A   Clear
5:53 AM 62.1 °F 55.9 °F 80% 30.21 in 10.0 mi Calm Calm - N/A   Clear
6:53 AM 60.1 °F 55.9 °F 86% 30.22 in 10.0 mi Calm Calm - N/A   Partly Cloudy
7:53 AM 63.0 °F 57.9 °F 84% 30.25 in 10.0 mi Calm Calm - N/A   Clear
8:53 AM 68.0 °F 60.1 °F 76% 30.26 in 10.0 mi Calm Calm - N/A   Clear
9:53 AM 72.0 °F 62.1 °F 71% 30.26 in 10.0 mi NW 4.6 mph - N/A   Mostly Cloudy
10:53 AM 73.9 °F 63.0 °F 68% 30.28 in 10.0 mi North 8.1 mph - N/A   Mostly Cloudy
11:53 AM 75.9 °F 62.1 °F 62% 30.26 in 10.0 mi East 4.6 mph - N/A   Clear
12:53 PM 78.1 °F 63.0 °F 60% 30.24 in 10.0 mi ENE 8.1 mph - N/A   Mostly Cloudy
1:53 PM 79.0 °F 60.1 °F 52% 30.23 in 10.0 mi ENE 9.2 mph - N/A   Scattered Clouds
2:53 PM 79.0 °F 59.0 °F 50% 30.20 in 10.0 mi East 8.1 mph - N/A   Scattered Clouds
3:53 PM 75.9 °F 57.9 °F 54% 30.20 in 10.0 mi NE 9.2 mph - N/A   Overcast
4:30 PM 75.2 °F 59.0 °F 57% 30.22 in 10.0 mi NNE 6.9 mph - 0.00 in Rain , Thunderstorm Light Thunderstorms and Rain
4:53 PM 70.0 °F 62.1 °F 76% 30.20 in 4.0 mi North 9.2 mph - 0.03 in Rain , Thunderstorm Thunderstorms and Rain
5:42 PM 66.2 °F 60.8 °F 83% 30.23 in 6.0 mi NE 6.9 mph - 0.08 in Rain Rain
5:53 PM 66.9 °F 61.0 °F 81% 30.22 in 8.0 mi North 5.8 mph - 0.09 in Rain Light Rain
6:53 PM 66.0 °F 64.0 °F 93% 30.23 in 4.0 mi North 4.6 mph - 0.07 in Rain Rain
7:53 PM 66.0 °F 62.1 °F 87% 30.19 in 10.0 mi ESE 10.4 mph - 0.02 in Rain Light Rain
8:53 PM 64.9 °F 62.1 °F 90% 30.17 in 10.0 mi SE 6.9 mph - 0.00 in   Mostly Cloudy
9:53 PM 64.0 °F 60.1 °F 87% 30.18 in 10.0 mi SE 3.5 mph - N/A   Partly Cloudy
10:53 PM 63.0 °F 60.1 °F 90% 30.18 in 8.0 mi Calm Calm - N/A   Mostly Cloudy
11:53 PM 62.1 °F 60.1 °F 93% 30.18 in 7.0 mi North 3.5 mph - N/A   Mostly Cloudy